Find Starlink 30107

NORAD ID: 56287 Int'l Des: 2023-056 Owner: SPXS Country: US Constellation: starlink operational
LEOCIRCULAR

リアルタイム位置

3D地球を読み込み中...

Starlink 30107について

説明を読み込み中...

次回通過

Passes for default location (London). Set your location on the main map for personalized predictions.

高度履歴

Loading altitude history...

軌道要素

1 56287U 23056B 26125.74003618 .00004304 00000-0 16581-3 0 9994
2 56287 43.0058 228.9656 0003040 262.7717 97.2789 15.27590967169028
Epoch: May 5, 2026 • Age: 8 hours

現在のステータス

高度 483.8 km
速度 7.63 km/s
衛星直下点 22.16°N, 2.6°E
打ち上げ日 Apr 19, 2023
運用期間 3 years
タイプ internet

技術仕様

分類 Payload
質量 730.00 kg
乾燥質量 700.00 kg
総質量 730.00 kg
長さ 0.30 m
直径 4.10 m
スパン 29.00 m
形状 Box + pan
製造者 SPXS
バスタイプ Starlink V2M
フェーズステータス In Orbit
所有者/国 SPXS/US

Most Searched